Location: Courcelles
(49.8121°N, 2.0451°E)
Time: 08:46:52
(UTC+00:00)

Daily predictions for brighter satellites

Satellite Brightness Start Highest point End
(mag) Time Altitude Azimuth Time Altitude Azimuth Time Altitude Azimuth
COSMOS 2406 4.5 16:36:37 10° N 16:40:53 21° NE 16:45:06 10° E
Cosmos 2084 Rocket 3.4 16:37:18 10° SW 16:41:28 77° SE 16:45:41 10° NE
Cosmos 2100 Rocket 4.4 16:37:29 10° SSW 16:43:37 69° WNW 16:49:47 10° N
ATLAS CENTAUR R/B 2.4 16:40:53 10° WSW 16:43:59 30° NW 16:47:06 10° NNE
Cosmos 1441 Rocket 3.2 16:42:23 10° NNW 16:45:44 72° W 16:49:04 10° S
Cosmos 2221 Rocket 4.3 16:41:56 10° NNW 16:46:21 59° W 16:50:43 10° S
Cosmos 1833 Rocket 2.9 16:40:50 10° NNW 16:46:31 80° WSW 16:52:09 10° SSE
SAR-Lupe-4 4.0 16:43:14 10° SE 16:46:36 40° ENE 16:49:59 10° N
ARIANE 5 R/B 2.7 16:42:31 10° SE 16:47:18 48° ENE 16:52:06 10° N
Timation 1 Rocket 4.5 16:49:00 10° NNW 16:54:52 55° NE 17:00:42 10° SE
USA 215 3.4 16:48:20 10° SE 16:54:54 84° SSW 17:01:30 10° WNW
IRS-P3 4.4 16:53:02 10° SE 16:58:05 45° ENE 17:03:09 10° N
MOS 1 Rocket 3.8 16:56:21 10° SE 17:00:13 32° ENE 17:04:15 10° N
ATLAS 5 CENTAUR R/B 2.4 16:55:59 10° NW 17:00:15 60° SW 17:05:33 10° SSE
Cosmos 1484 Rocket 4.0 17:00:51 10° S 17:04:11 42° W 17:07:34 10° NNW
Iridium 4 Rocket 4.2 17:01:28 10° SSW 17:06:22 53° W 17:10:55 10° N
Resurs 01 Rocket 3.6 17:08:57 11° NE 17:08:57 11° NE 17:09:42 10° NE
Cosmos 2233 Rocket 4.0 17:02:25 10° S 17:08:42 83° E 17:15:05 10° N
RESURS DK-1 2.3 17:05:04 10° NNW 17:09:03 60° ENE 17:13:00 10° SE
Cosmos 1602 4.3 17:06:52 10° NNE 17:09:23 23° ENE 17:11:53 10° SE
Cosmos 407 Rocket 3.8 17:04:49 10° S 17:09:43 45° ESE 17:14:36 10° NE
Cosmos 1725 Rocket 4.4 17:03:29 10° SSW 17:09:45 71° WNW 17:16:05 10° N
Cosmos 2061 Rocket 4.0 17:04:57 10° S 17:11:14 79° E 17:17:29 10° NNE
ISS -2.9 17:12:00 10° SW 17:15:07 38° SSE 17:17:12 18° E
Cosmos 1782 Rocket 3.7 17:11:03 10° SSW 17:15:29 81° W 17:19:57 10° N
CZ-2D R/B 2.6 17:13:17 10° SSE 17:16:26 74° ENE 17:19:35 10° N
Cosmos 1869 3.2 17:13:52 10° SSE 17:17:14 45° E 17:20:37 10° NNE
ERS-1 4.4 17:13:19 10° SSE 17:18:26 73° ENE 17:23:33 10° NNW
USA 281 4.3 17:15:06 14° E 17:18:57 23° NE 17:23:50 10° N
SPOT 1/Viking Rocket 3.9 17:14:27 10° SE 17:19:15 40° ENE 17:24:06 10° N
Cosmos 1300 Rocket 4.0 17:15:19 10° SSW 17:19:41 66° WNW 17:24:03 10° N
COSMO-SKYMED 1 3.8 17:21:26 18° ENE 17:22:30 20° E 17:25:33 10° SE
SJ-12 3.6 17:19:27 10° SSE 17:23:15 85° ENE 17:27:03 10° NNW
Cosmos 1464 Rocket 4.5 17:19:07 10° SSE 17:24:46 36° E 17:30:22 10° NNE
AQUARIUS 4.0 17:22:39 10° SSE 17:27:03 76° ENE 17:31:28 10° N
SL-12 R/B(2) 4.4 17:19:45 10° SSW 17:27:35 64° ESE 17:36:59 11° NE
Cosmos 540 Rocket 3.4 17:23:57 10° NNW 17:29:07 82° ENE 17:34:14 10° SSE
BREEZE-M DEB (TANK) 2.6 17:27:01 10° SW 17:29:25 50° SSE 17:32:21 20° E
Cosmos 1400 Rocket 3.9 17:28:17 10° SE 17:31:12 22° E 17:31:12 22° E
Cosmos 1975 Rocket 3.5 17:28:10 10° NNW 17:32:28 63° W 17:36:47 10° S
Spot 4 Rocket 4.3 17:28:13 10° SE 17:33:03 45° ENE 17:37:54 10° N
Cosmos 1763 Rocket 3.6 17:29:21 10° NNW 17:34:35 78° WSW 17:39:43 10° SSE
Cosmos 1812 2.2 17:33:49 10° S 17:36:36 45° E 17:37:34 31° NE
Cosmos 1140 Rocket 4.0 17:36:31 10° SW 17:41:37 58° WNW 17:46:43 10° NNE
Cosmos 2151 Rocket 4.0 17:37:43 10° SSE 17:41:52 39° E 17:45:29 13° NNE
Cosmos 2058 2.7 17:38:35 10° N 17:42:32 61° ENE 17:46:28 10° SSE
SMAP 4.2 17:38:42 10° S 17:43:11 47° W 17:47:43 10° NNW
Cosmos 44 Rocket 3.4 17:39:45 10° SSW 17:44:24 55° ESE 17:47:06 25° NE
SKYMED 2 3.7 17:45:23 12° NNE 17:49:21 51° E 17:53:34 10° S
Cosmos 1943 Rocket 2.1 17:43:50 10° SSW 17:49:26 77° ESE 17:54:09 15° NNE
Helios 1A Rocket 3.6 17:51:57 27° SE 17:51:57 27° SE 17:54:01 10° SSE
Okean 1 Rocket 3.7 17:47:54 10° SSE 17:51:43 32° E 17:51:43 32° E
SJ-7 4.2 17:48:29 10° SSE 17:52:04 52° ENE 17:55:41 10° N
CZ-2D R/B 3.3 17:47:57 10° SSE 17:52:04 69° ENE 17:56:16 10° N
IRAS Rocket 4.2 17:47:03 10° SSE 17:52:33 66° ENE 17:58:02 10° NNW
Sich 1 Rocket 4.2 17:48:45 10° SSE 17:52:50 34° E 17:53:29 32° ENE
Cosmos 2082 Rocket 2.1 17:47:37 10° NNW 17:53:16 82° ENE 17:58:53 10° SSE
PSLV R/B 3.5 17:49:45 10° SE 17:53:40 51° ENE 17:57:35 10° N
Cosmos 2026 Rocket 4.3 17:51:56 10° N 17:57:37 39° ENE 18:03:19 10° SE
Cosmos 1072 Rocket 4.4 17:51:45 10° S 17:57:49 66° E 18:03:52 10° NNE
Cosmos 2278 Rocket 2.1 17:52:34 10° SSW 17:58:13 84° ESE 18:02:47 16° NNE
NOAA 6 4.1 17:55:29 10° SE 18:00:26 50° ENE 18:05:24 10° N
BREEZE-M DEB (TANK) 3.4 17:58:23 10° SW 18:01:11 54° SSE 18:03:16 32° E
Aureole 3 Rocket 2.3 17:58:17 10° SSW 18:01:18 77° W 18:03:12 22° N
BREEZE-M DEB (TANK) 2.9 17:59:30 10° WSW 18:02:04 80° SSE 18:04:09 34° ENE
SL-16 R/B 4.1 17:59:55 10° N 18:05:23 33° WNW 18:10:50 10° WSW
Geosat 4.1 18:04:10 31° ESE 18:06:20 53° NE 18:11:13 10° NNW
Cosmos 2251 Rocket 3.4 18:03:47 10° SSW 18:09:02 77° ESE 18:12:38 21° NNE
YAOGAN 1 2.4 18:07:15 10° SSE 18:11:31 81° ENE 18:15:48 10° NNW
Cosmos 371 Rocket 3.5 18:08:06 10° S 18:12:40 46° ESE 18:12:52 45° E
Cosmos 304 Rocket 3.9 18:09:12 10° S 18:13:44 48° ESE 18:13:57 48° E
Cosmos 841 Rocket 3.4 18:09:05 10° NNW 18:14:20 67° ENE 18:17:15 26° SE
SJ 16-02 1.2 18:11:02 10° S 18:15:17 61° ESE 18:15:42 58° ENE
SL-19 R/B 4.0 18:10:33 10° SSE 18:15:46 86° ENE 18:21:02 10° NNW
Nadezhda 4 Rocket 4.0 18:13:29 10° N 18:19:49 88° W 18:26:03 10° S
CZ-4C R/B 3.8 18:15:36 10° WNW 18:19:51 24° N 18:22:36 18° NNE
Cosmos 1862 3.4 18:18:36 10° NNW 18:22:12 64° W 18:25:47 10° S
Resurs 1-3 3.5 18:19:12 10° SSE 18:23:30 83° WSW 18:27:50 10° NNW
ATLAS 2AS CENTAUR R/B 3.0 18:17:32 10° NW 18:24:04 46° NNE 18:25:35 40° ENE
COSMOS 2406 3.1 18:20:20 10° NNW 18:26:03 82° ENE 18:29:07 29° SE
Cosmos 1627 Rocket 4.4 18:22:11 10° N 18:28:15 61° ENE 18:34:21 10° SSE
Cosmos 1656 Rocket 4.2 18:24:14 10° S 18:28:32 40° SE 18:28:32 40° SE
Cosmos 2195 Rocket 4.4 18:27:21 10° N 18:33:42 81° E 18:40:03 10° SSE
Cosmos 1536 Rocket 4.2 18:29:57 10° NNW 18:34:18 55° W 18:38:35 10° S
Okean 2 Rocket 3.1 18:32:15 10° SSW 18:36:39 78° WNW 18:37:52 47° N
Cosmos 1190 Rocket 4.2 18:34:41 10° SSW 18:39:58 73° WNW 18:42:26 32° NNE
Cosmos 2344 3.8 18:34:27 10° NW 18:42:17 79° NE 18:47:32 32° SE
Cosmos 676 Rocket 3.8 18:37:33 10° SSW 18:42:51 78° ESE 18:43:15 73° ENE
Resurs 01 Rocket 3.1 18:46:22 26° N 18:46:22 26° N 18:48:23 10° N
Meteor 2-3 Rocket 3.6 18:39:53 10° NNW 18:45:38 89° W 18:49:59 18° S
Cosmos 2297 Rocket 4.4 18:47:13 10° N 18:48:17 12° N 18:48:17 12° N
ISS -1.6 18:48:26 10° W 18:50:07 27° W 18:50:07 27° W
Cosmos 1954 Rocket 4.2 18:47:41 10° SSW 18:52:56 70° WNW 18:54:18 48° N
COSMO-SKYMED 1 3.4 18:57:48 45° WNW 18:58:03 46° WNW 19:02:00 10° SW
USA 281 3.0 19:02:00 70° E 19:02:33 74° ENE 19:09:08 10° NNW
Cosmos 1943 Rocket 4.0 19:29:11 10° W 19:33:46 25° NW 19:35:40 21° NNW
Cosmos 2278 Rocket 4.1 19:38:29 10° W 19:43:00 24° NW 19:44:37 21° NNW
SJ 16-02 4.1 19:50:42 10° W 19:52:17 16° W 19:52:17 16° W
CZ-4C R/B 4.3 20:05:01 10° NW 20:07:32 21° NNW 20:07:32 21° NNW
ATLAS 2AS CENTAUR R/B 3.7 20:08:35 10° NW 20:13:01 41° WNW 20:13:01 41° WNW
